Meeker, CO

5:52 PM MST on December 14, 2017 (GMT -0700)
Meeker

Weather History for KEEO - May, 2014

Change the Weather History Date:

Sunday, May 11, 2014

  Actual Average Record
Temperature  
Mean Temperature 37 °F 50 °F  
Max Temperature 42 °F 66 °F 82 °F (2007)
Min Temperature 32 °F 34 °F 21 °F (1999)
Degree Days  
Heating Degree Days 28 15  
Month to date heating degree days 164 187  
Since 1 July heating degree days 7564 7600  
Cooling Degree Days 0 0  
Month to date cooling degree days 0 0  
Year to date cooling degree days 0 0  
Moisture  
Dew Point 32 °F    
Average Humidity 86    
Maximum Humidity 96    
Minimum Humidity 75    
Precipitation  
Precipitation 0.48 in 0.06 in 0.48 in (2014)
Month to date precipitation 1.36 0.60  
Year to date precipitation 7.00 5.30  
Sea Level Pressure  
Sea Level Pressure 29.73 in    
Wind  
Wind Speed 10 mph (WSW)    
Max Wind Speed 30 mph    
Max Gust Speed 39 mph    
Visibility 5 miles    
Events Fog , Rain , Snow    
T = Trace of Precipitation, MM = Missing Value Source: NWS Daily Summary

Daily Weather History Graph

Daily Weather History Graph

Search for Another Location

Airport or City:

Trip Planner

Search our weather history database for the weather conditions in past years. The results will help you decide how hot, cold, wet, or windy it might be!

Date:

Astronomy

May. 11, 2014 Rise Set
Actual Time 6:00 AM MDT 8:16 PM MDT
Civil Twilight 5:29 AM MDT 8:46 PM MDT
Nautical Twilight 4:52 AM MDT 9:24 PM MDT
Astronomical Twilight 4:11 AM MDT 10:05 PM MDT
Moon 5:15 PM MDT (5/11) 4:06 AM MDT (5/11)
Length of Visible Light 15h 17m
Length of Day
14h 16m
Waxing Gibbous, 89% of the Moon is Illuminated
May 11
Waxing Gibbous
May 14
Full
May 21
Last Quarter
May 28
New
Jun 5
First Quarter

Hourly Weather History & Observations

Time (MDT) Temp. Windchill Dew Point Humidity Pressure Visibility Wind Dir Wind Speed Gust Speed Precip Events Conditions
12:27 AM 33.1 °F 27.7 °F 32.0 °F 96% 29.80 in 0.8 mi SSW 5.8 mph - 0.07 in Snow Light Snow
12:53 AM 33.1 °F - 32.0 °F 96% 29.73 in 0.8 mi Calm Calm - 0.15 in Snow Light Snow
1:00 AM 33.1 °F - 32.0 °F 96% 29.79 in 1.0 mi Calm Calm - 0.01 in Snow Light Snow
1:07 AM 33.1 °F 27.7 °F 30.9 °F 92% 29.79 in 1.2 mi Variable 5.8 mph - 0.02 in Snow Light Snow
1:19 AM 33.1 °F 24.4 °F 32.0 °F 96% 29.78 in 2.5 mi South 11.5 mph - 0.03 in Snow Light Snow
1:22 AM 33.1 °F 24.9 °F 32.0 °F 96% 29.78 in 3.0 mi South 10.4 mph - 0.03 in Snow Light Snow
1:27 AM 33.1 °F 25.5 °F 32.0 °F 96% 29.77 in 4.0 mi SSW 9.2 mph - 0.03 in Snow Light Snow
1:53 AM 35.1 °F 27.9 °F 30.9 °F 85% 29.69 in 9.0 mi ESE 9.2 mph - 0.04 in Snow Light Snow
2:33 AM 34.0 °F 28.0 °F 30.9 °F 89% 29.75 in 1.8 mi Variable 6.9 mph - 0.01 in Snow Light Snow
2:37 AM 33.1 °F 28.7 °F 30.9 °F 92% 29.75 in 1.0 mi ESE 4.6 mph - 0.02 in Snow Light Snow
2:41 AM 33.1 °F 28.7 °F 30.9 °F 92% 29.74 in 0.5 mi SE 4.6 mph - 0.03 in Fog , Snow Snow
2:53 AM 33.1 °F 27.7 °F 30.9 °F 92% 29.65 in 0.5 mi SE 5.8 mph - 0.08 in Fog , Snow Snow
3:18 AM 33.1 °F 26.1 °F 30.9 °F 92% 29.72 in 1.2 mi ENE 8.1 mph - 0.04 in Snow Light Snow
3:29 AM 33.1 °F 26.1 °F 30.9 °F 92% 29.71 in 0.8 mi East 8.1 mph - 0.07 in Snow Light Snow
3:48 AM 33.8 °F 29.6 °F 30.2 °F 87% 29.68 in 1.2 mi ENE 4.6 mph - 0.10 in Snow Light Snow
3:53 AM 33.1 °F 27.7 °F 32.0 °F 96% 29.57 in 2.0 mi NE 5.8 mph - 0.10 in Snow Light Snow
3:55 AM 33.1 °F 30.0 °F 32.0 °F 96% 29.68 in 3.0 mi Variable 3.5 mph - 0.00 in Snow Light Snow
4:06 AM 33.1 °F 30.0 °F 32.0 °F 96% 29.68 in 7.0 mi West 3.5 mph - 0.00 in Snow Light Snow
4:23 AM 33.1 °F 27.7 °F 32.0 °F 96% 29.67 in 8.0 mi WNW 5.8 mph - 0.00 in Snow Light Snow
4:49 AM 33.8 °F - 30.2 °F 87% 29.65 in 8.0 mi Calm Calm - 0.00 in Snow Light Snow
4:53 AM 33.1 °F 28.7 °F 32.0 °F 96% 29.54 in 9.0 mi NNE 4.6 mph - 0.00 in Snow Light Snow
5:53 AM 33.1 °F - 30.9 °F 92% 29.52 in 10.0 mi Calm Calm - 0.00 in   Overcast
6:07 AM 33.1 °F 28.7 °F 32.0 °F 96% 29.63 in 4.0 mi SW 4.6 mph - 0.00 in   Overcast
6:25 AM 33.1 °F 30.0 °F 32.0 °F 96% 29.63 in 1.8 mi NW 3.5 mph - 0.01 in Snow Light Snow
6:35 AM 33.1 °F - 32.0 °F 96% 29.62 in 3.0 mi Calm Calm - 0.01 in Rain Light Rain
6:46 AM 33.1 °F - 32.0 °F 96% 29.62 in 8.0 mi Calm Calm - 0.01 in   Overcast
6:51 AM 33.8 °F - 32.0 °F 93% 29.62 in 8.0 mi Calm Calm - 0.01 in   Overcast
6:53 AM 33.1 °F 30.0 °F 32.0 °F 96% 29.54 in 8.0 mi East 3.5 mph - 0.01 in   Overcast
7:20 AM 33.1 °F - 32.0 °F 96% 29.63 in 8.0 mi Calm Calm - N/A   Overcast
7:53 AM 34.0 °F - 32.0 °F 92% 29.55 in 10.0 mi Calm Calm - 0.00 in   Mostly Cloudy
8:12 AM 33.1 °F 25.5 °F 32.0 °F 96% 29.63 in 1.2 mi WSW 9.2 mph - 0.00 in Rain Light Rain
8:19 AM 33.1 °F 26.1 °F 32.0 °F 96% 29.63 in 0.2 mi WSW 8.1 mph - 0.00 in Fog , Rain Light Rain
8:29 AM 34.0 °F 26.6 °F 33.1 °F 96% 29.63 in 1.2 mi WSW 9.2 mph - 0.00 in   Overcast
8:32 AM 34.0 °F 26.6 °F 33.1 °F 96% 29.63 in 4.0 mi WSW 9.2 mph - 0.00 in   Overcast
8:53 AM 35.1 °F 31.0 °F 33.1 °F 92% 29.58 in 10.0 mi SW 4.6 mph - 0.00 in   Mostly Cloudy
9:39 AM 34.0 °F 31.0 °F 33.1 °F 96% 29.66 in 6.0 mi SSW 3.5 mph - 0.00 in Rain Light Rain
9:53 AM 35.1 °F 27.9 °F 33.1 °F 92% 29.60 in 6.0 mi NE 9.2 mph - 0.01 in Rain Light Rain
10:15 AM 36.0 °F 31.1 °F 34.0 °F 93% 29.66 in 10.0 mi SW 5.8 mph - 0.00 in   Overcast
10:42 AM 37.9 °F 35.5 °F 35.1 °F 89% 29.67 in 10.0 mi South 3.5 mph - 0.00 in   Overcast
10:53 AM 37.9 °F - 35.1 °F 89% 29.62 in 7.0 mi Calm Calm - 0.00 in   Overcast
10:58 AM 37.9 °F - 35.1 °F 89% 29.67 in 6.0 mi Calm Calm - N/A   Overcast
11:10 AM 39.0 °F 36.8 °F 35.1 °F 86% 29.67 in 10.0 mi WSW 3.5 mph - N/A   Overcast
11:23 AM 39.9 °F 35.8 °F 37.0 °F 89% 29.68 in 8.0 mi SSW 5.8 mph - N/A   Overcast
11:30 AM 39.0 °F 34.0 °F 37.0 °F 93% 29.68 in 7.0 mi SSW 6.9 mph - N/A   Overcast
11:53 AM 42.1 °F 35.7 °F 37.9 °F 85% 29.63 in 10.0 mi West 11.5 mph - N/A   Mostly Cloudy
12:01 PM 42.1 °F 36.1 °F 37.0 °F 82% 29.69 in 10.0 mi West 10.4 mph - N/A   Overcast
12:20 PM 39.9 °F 33.9 °F 37.0 °F 89% 29.70 in 10.0 mi SW 9.2 mph - N/A   Overcast
12:53 PM 42.1 °F 36.1 °F 37.0 °F 82% 29.65 in 10.0 mi West 10.4 mph - N/A   Overcast
1:05 PM 42.1 °F 35.7 °F 37.0 °F 82% 29.70 in 10.0 mi West 11.5 mph - N/A   Overcast
1:24 PM 41.0 °F 34.7 °F 36.0 °F 82% 29.70 in 10.0 mi WNW 10.4 mph - N/A   Overcast
1:42 PM 39.9 °F 31.8 °F 35.1 °F 83% 29.71 in 10.0 mi West 15.0 mph - N/A   Overcast
1:53 PM 39.9 °F 32.5 °F 35.1 °F 83% 29.67 in 10.0 mi SW 12.7 mph - N/A   Overcast
2:26 PM 39.0 °F 31.4 °F 36.0 °F 89% 29.73 in 10.0 mi WSW 12.7 mph - 0.00 in Rain Light Rain
2:35 PM 37.9 °F 30.0 °F 36.0 °F 93% 29.74 in 9.0 mi West 12.7 mph - 0.00 in Rain Rain
2:53 PM 37.0 °F 28.1 °F 34.0 °F 89% 29.73 in 7.0 mi West 15.0 mph - 0.02 in Rain Rain
3:19 PM 35.1 °F 26.9 °F 33.1 °F 92% 29.77 in 2.5 mi WSW 11.5 mph - 0.01 in Snow Light Snow
3:29 PM 35.1 °F 26.9 °F 33.1 °F 92% 29.77 in 2.0 mi WSW 11.5 mph - 0.02 in Snow Light Snow
3:53 PM 34.0 °F 29.8 °F 33.1 °F 96% 29.77 in 1.8 mi WSW 4.6 mph - 0.03 in Snow Light Snow
4:07 PM 34.0 °F 31.0 °F 32.0 °F 92% 29.79 in 1.0 mi South 3.5 mph - 0.02 in Snow Light Snow
4:16 PM 33.1 °F - 32.0 °F 96% 29.79 in 0.8 mi Calm Calm - 0.03 in Snow Light Snow
4:40 PM 33.1 °F 28.7 °F 32.0 °F 96% 29.80 in 0.5 mi SSW 4.6 mph - 0.07 in Fog , Snow Snow
4:50 PM 33.8 °F 27.7 °F 32.0 °F 93% 29.80 in 0.5 mi SW 6.9 mph - 0.09 in Fog , Snow Snow
4:53 PM 33.1 °F 25.5 °F 30.9 °F 92% 29.81 in 0.5 mi WSW 9.2 mph - 0.09 in Fog , Snow Snow
5:19 PM 33.1 °F 25.5 °F 32.0 °F 96% 29.82 in 1.0 mi WSW 9.2 mph - 0.04 in Snow Light Snow
5:23 PM 33.1 °F 26.1 °F 32.0 °F 96% 29.83 in 1.2 mi WSW 8.1 mph - 0.04 in Snow Light Snow
5:37 PM 33.1 °F 26.1 °F 32.0 °F 96% 29.83 in 1.0 mi SW 8.1 mph - 0.06 in Snow Light Snow
5:53 PM 33.1 °F 27.7 °F 32.0 °F 96% 29.83 in 1.2 mi SSW 5.8 mph - 0.07 in Snow Light Snow
6:11 PM 34.0 °F 31.0 °F 32.0 °F 92% 29.83 in 1.2 mi West 3.5 mph - 0.01 in Snow Light Snow
6:41 PM 34.0 °F 31.0 °F 32.0 °F 92% 29.84 in 3.0 mi West 3.5 mph - 0.02 in Snow Light Snow
6:53 PM 34.0 °F - 32.0 °F 92% 29.84 in 3.0 mi Calm Calm - 0.02 in Snow Light Snow
7:01 PM 34.0 °F 29.8 °F 32.0 °F 92% 29.85 in 2.0 mi SW 4.6 mph - 0.00 in Snow Light Snow
7:08 PM 34.0 °F 28.8 °F 32.0 °F 92% 29.85 in 1.5 mi SSW 5.8 mph - 0.00 in Snow Light Snow
7:18 PM 33.1 °F 28.7 °F 30.9 °F 92% 29.85 in 1.2 mi Variable 4.6 mph - 0.01 in Snow Light Snow
7:38 PM 34.0 °F 26.6 °F 30.9 °F 89% 29.86 in 1.0 mi NNE 9.2 mph - 0.01 in Snow Light Snow
7:45 PM 35.1 °F 25.9 °F 30.0 °F 82% 29.86 in 1.2 mi NNE 13.8 mph 28.8 mph 0.01 in Snow Light Snow
7:53 PM 35.1 °F 25.2 °F 30.0 °F 82% 29.85 in 1.0 mi NNE 16.1 mph 25.3 mph 0.01 in Snow Light Snow
8:00 PM 35.1 °F 22.7 °F 30.0 °F 82% 29.87 in 1.2 mi NNE 25.3 mph 32.2 mph 0.01 in Snow Light Snow
8:14 PM 35.1 °F 22.7 °F 30.0 °F 82% 29.87 in 3.0 mi NNE 25.3 mph 31.1 mph 0.01 in Snow Light Snow
8:48 PM 35.6 °F 23.0 °F 28.4 °F 75% 29.88 in 4.0 mi NNE 27.6 mph 35.7 mph 0.01 in Snow Light Snow
8:53 PM 35.1 °F 24.1 °F 28.9 °F 78% 29.87 in 3.0 mi NNE 19.6 mph 35.7 mph 0.01 in Snow Light Snow
9:53 PM 34.0 °F 21.5 °F 28.0 °F 79% 29.89 in 4.0 mi NNE 24.2 mph 33.4 mph 0.00 in Snow Light Snow
10:53 PM 34.0 °F 21.8 °F 27.0 °F 75% 29.91 in 10.0 mi NNE 23.0 mph 26.5 mph 0.00 in   Overcast
11:53 PM 34.0 °F 22.1 °F 26.1 °F 73% 29.91 in 10.0 mi North 21.9 mph 28.8 mph 0.00 in   Overcast